CDT,Max TemperatureF,Mean TemperatureF,Min TemperatureF,Max Dew PointF,MeanDew PointF,Min DewpointF,Max Humidity, Mean Humidity, Min Humidity, Max Sea Level PressureIn, Mean Sea Level PressureIn, Min Sea Level PressureIn, Max VisibilityMiles, Mean VisibilityMiles, Min VisibilityMiles, Max Wind SpeedMPH, Mean Wind SpeedMPH, Max Gust SpeedMPH,PrecipitationIn, CloudCover, Events, WindDirDegrees
2013-3-1,62,47,32,31,28,24,82,54,25,30.27,30.21,30.15,10,10,8,16,5,23,0.00,1,,319
2013-3-2,53,43,32,29,24,18,75,51,26,30.36,30.30,30.23,10,10,10,17,6,28,0.00,1,,328
2013-3-3,70,49,28,41,29,22,85,54,23,30.27,30.16,30.00,10,10,8,14,6,20,0.00,0,,186
2013-3-4,80,64,48,58,52,43,86,61,36,29.98,29.84,29.73,10,10,10,21,12,35,0.00,1,,178
2013-3-5,68,55,41,59,36,21,84,51,18,30.32,30.12,29.78,10,10,9,23,10,33,T,3,Rain,322
2013-3-6,68,49,30,35,24,14,78,46,13,30.43,30.33,30.25,10,10,9,13,3,17,0.00,0,,331
2013-3-7,70,53,36,38,32,28,82,52,22,30.32,30.24,30.18,10,10,10,13,6,16,0.00,0,,121
2013-3-8,75,60,45,52,47,38,82,62,41,30.25,30.16,30.10,10,10,10,20,8,24,0.00,1,,127
2013-3-9,77,67,57,61,56,51,84,69,54,30.09,29.93,29.80,10,10,6,22,11,30,T,7,Rain,146
2013-3-10,68,58,47,63,50,32,81,61,40,30.08,29.87,29.72,10,8,1,13,8,22,1.11,6,Rain,304
2013-3-11,61,50,38,34,29,23,79,52,24,30.12,30.05,29.99,10,10,10,17,6,23,0.00,0,,312
2013-3-12,71,52,33,42,31,25,89,56,22,30.27,30.17,30.08,10,10,9,10,2,13,0.00,0,,96
2013-3-13,73,57,40,40,33,25,76,47,17,30.45,30.37,30.28,10,10,9,14,4,16,0.00,0,,39
2013-3-14,76,58,39,45,39,35,85,57,29,30.43,30.34,30.25,10,10,10,10,5,18,0.00,0,,187
2013-3-15,81,63,44,55,47,40,89,59,28,30.27,30.15,30.03,10,10,9,20,7,25,0.00,0,,190
2013-3-16,84,71,57,57,54,51,86,60,34,30.02,29.92,29.81,10,10,9,18,11,29,0.00,1,,183
2013-3-17,84,72,60,63,60,57,90,67,43,29.87,29.80,29.69,10,10,8,17,9,24,0.00,7,,163
2013-3-18,88,76,64,63,60,48,87,63,39,29.95,29.79,29.73,10,8,4,16,7,23,0.00,6,,199
2013-3-19,78,66,53,48,44,38,72,53,33,30.05,29.98,29.93,10,10,10,15,9,22,T,1,,70
2013-3-20,74,62,50,48,40,26,89,53,17,30.24,30.14,30.06,10,9,4,16,6,23,0.44,3,Rain,32
2013-3-21,75,61,46,54,45,36,82,58,33,30.04,29.85,29.71,10,10,10,23,10,32,T,5,,146
2013-3-22,86,75,63,66,60,55,87,66,44,29.76,29.70,29.64,10,10,7,14,6,18,0.00,7,,171
2013-3-23,67,61,55,57,54,52,86,79,72,29.80,29.71,29.62,10,6,2,10,5,14,T,8,Rain,22
2013-3-24,59,50,41,55,38,26,87,60,33,30.14,29.92,29.65,10,10,7,23,12,33,T,3,,321
2013-3-25,61,47,33,28,22,17,70,45,19,30.39,30.27,30.15,10,10,10,21,7,26,0.00,0,,328
2013-3-26,61,45,29,29,22,16,78,49,19,30.50,30.40,30.34,10,10,10,15,4,22,0.00,0,,334
2013-3-27,72,52,32,40,30,26,82,52,22,30.40,30.30,30.18,10,10,10,15,5,21,0.00,0,,164
2013-3-28,73,63,53,53,47,41,86,68,49,30.30,30.25,30.18,10,10,9,13,7,17,0.00,7,,134
2013-3-29,77,66,54,58,55,52,93,70,46,30.25,30.20,30.13,10,8,5,9,6,17,0.00,7,,150
2013-3-30,80,70,60,63,60,57,93,71,48,30.13,30.06,29.95,10,8,2,16,7,21,0.11,5,Rain,167
2013-3-31,74,67,60,63,60,57,93,81,68,30.00,29.95,29.89,10,8,1,22,6,31,0.69,7,Rain,145